JE9BHE-13 Weather Reports


time (UTC)temp
F
wind
direction
speed
knots
gust
knots
rain 1hr
in
rain 24hr
in
rain mn
in
humidity
%
barometer
mb
20260505130306 58 122 2.6 6.1 0.00 0.00 0.00 64 1021.7
20260505124807 53 80 1.7 3.5 0.00 0.00 0.00 78 1022.4
20260505124506 53 53 0.9 1.7 0.00 0.00 0.00 79 1022.1
20260505124206 53 73 0.0 1.7 0.00 0.00 0.00 80 1021.9
20260505123307 53 157 0.9 1.7 0.00 0.00 0.00 80 1022.4
20260505123007 53 231 0.9 1.7 0.00 0.00 0.00 81 1022.0
20260505122707 53 246 0.0 1.7 0.00 0.00 0.00 81 1022.3
20260505122407 53 263 0.0 1.7 0.00 0.00 0.00 82 1021.9
20260505122107 53 82 0.0 1.7 0.00 0.00 0.00 81 1022.0
20260505121507 53 90 0.0 1.7 0.00 0.00 0.00 82 1022.2
20260505121206 53 78 0.0 1.7 0.00 0.00 0.00 83 1022.0
20260505120607 54 68 0.0 1.7 0.00 0.00 0.00 81 1022.0
20260505120306 53 18 0.0 1.7 0.00 0.00 0.00 80 1021.9
20260505120007 53 357 0.0 1.7 0.00 0.00 0.00 80 1021.9
20260505115706 53 27 0.0 1.7 0.00 0.00 0.00 79 1022.0
20260505115407 53 89 0.0 1.7 0.00 0.00 0.00 79 1021.9
20260505115107 54 81 0.0 1.7 0.00 0.00 0.00 79 1021.8
20260505114507 54 73 0.0 1.7 0.00 0.00 0.00 79 1021.6
20260505114207 54 317 0.0 1.7 0.00 0.00 0.00 80 1021.8
20260505113306 55 334 0.9 1.7 0.00 0.00 0.00 74 1021.8
20260505113006 55 297 0.0 1.7 0.00 0.00 0.00 73 1021.6
20260505112706 55 282 0.9 1.7 0.00 0.00 0.00 72 1021.5
20260505112406 55 302 0.0 1.7 0.00 0.00 0.00 73 1021.5
20260505112106 56 309 0.0 1.7 0.00 0.00 0.00 73 1021.7
20260505111806 56 78 0.0 3.5 0.00 0.00 0.00 71 1021.5
20260505111506 56 103 0.0 3.5 0.00 0.00 0.00 67 1021.7
20260505110907 56 106 1.7 3.5 0.00 0.00 0.00 66 1021.8
20260505110607 56 94 1.7 3.5 0.00 0.00 0.00 69 1021.7
20260505110306 56 88 0.9 3.5 0.00 0.01 0.00 67 1021.6
20260505102107 59 86 0.0 3.5 0.00 0.04 0.00 67 1021.2
20260505101806 60 82 0.9 3.5 0.00 0.04 0.00 62 1021.4
20260505101506 59 77 1.7 3.5 0.00 0.04 0.00 60 1021.5
20260505101208 59 46 0.0 1.7 0.00 0.04 0.00 62 1021.2
20260505100607 59 0 0.0 0.0 0.00 0.04 0.00 60 1021.2
20260505100007 60 0 0.0 0.0 0.00 0.04 0.00 59 1021.3
20260505095706 60 0 0.0 0.0 0.00 0.04 0.00 59 1021.3
20260505095406 61 0 0.0 0.0 0.00 0.04 0.00 58 1021.1
20260505094808 61 0 0.0 0.0 0.00 0.04 0.00 53 1021.3
20260505094208 62 0 0.0 0.0 0.00 0.04 0.00 49 1021.1
20260505093608 62 325 0.0 1.7 0.00 0.04 0.00 49 1021.1
20260505093008 63 328 0.0 1.7 0.00 0.04 0.00 49 1021.0
20260505092707 64 327 0.9 1.7 0.00 0.04 0.00 49 1021.5
20260505092407 64 328 0.9 1.7 0.00 0.04 0.00 45 1021.1
20260505092107 65 331 0.9 1.7 0.00 0.04 0.00 44 1021.3
20260505091807 65 343 1.7 1.7 0.00 0.04 0.00 42 1020.8
20260505091508 65 351 1.7 1.7 0.00 0.05 0.00 40 1021.1
20260505090307 65 305 1.7 3.5 0.00 0.05 0.00 42 1020.9
20260505090006 65 312 1.7 3.5 0.00 0.06 0.00 42 1021.1
20260505085706 66 325 1.7 3.5 0.00 0.06 0.00 43 1021.0
20260505085407 66 326 0.9 3.5 0.00 0.08 0.00 45 1021.1
20260505085107 66 326 1.7 3.5 0.00 0.09 0.00 41 1021.0
20260505084508 66 317 1.7 3.5 0.00 0.11 0.00 41 1020.7
20260505084206 67 321 1.7 3.5 0.00 0.11 0.00 43 1020.7
20260505083307 67 346 1.7 3.5 0.00 0.11 0.00 42 1020.8
20260505083009 67 350 0.9 3.5 0.00 0.11 0.00 40 1020.7
20260505082707 67 346 0.9 3.5 0.00 0.11 0.00 39 1020.9
20260505082407 67 334 0.9 3.5 0.00 0.11 0.00 40 1020.6
20260505082107 67 314 1.7 3.5 0.00 0.11 0.00 39 1020.8
20260505081807 67 315 0.9 3.5 0.00 0.11 0.00 41 1020.7
20260505081206 67 309 1.7 3.5 0.00 0.11 0.00 44 1020.9
20260505080607 67 292 1.7 3.5 0.00 0.11 0.00 42 1020.9
20260505080308 67 295 0.9 3.5 0.00 0.11 0.00 43 1020.6
20260505080008 67 302 1.7 5.2 0.00 0.11 0.00 44 1020.7
20260505075706 67 307 2.6 5.2 0.00 0.12 0.00 40 1020.8
20260505075107 67 306 2.6 3.5 0.00 0.14 0.00 42 1020.9
20260505074806 68 318 1.7 3.5 0.00 0.14 0.00 42 1020.6
20260505074506 68 328 2.6 3.5 0.00 0.14 0.00 41 1020.8
20260505074206 69 329 1.7 3.5 0.00 0.15 0.00 39 1020.6
20260505073906 69 323 0.9 3.5 0.00 0.15 0.00 40 1020.6
20260505073307 68 321 1.7 3.5 0.00 0.15 0.00 39 1021.0
20260505073007 68 326 1.7 3.5 0.00 0.15 0.00 36 1021.1
20260505072707 69 333 1.7 5.2 0.00 0.15 0.00 38 1020.8
20260505072407 69 329 1.7 5.2 0.00 0.15 0.00 37 1020.8
20260505071807 69 337 1.7 5.2 0.00 0.15 0.00 36 1020.8
20260505071506 69 329 0.9 5.2 0.00 0.15 0.00 39 1020.9
20260505070906 69 316 2.6 5.2 0.00 0.17 0.00 36 1020.7
20260505070306 69 314 1.7 5.2 0.00 0.17 0.00 37 1021.0
20260505070006 69 316 2.6 3.5 0.00 0.17 0.00 38 1020.9
20260505065706 69 311 1.7 5.2 0.00 0.17 0.00 37 1020.9
20260505065406 69 305 1.7 5.2 0.00 0.17 0.00 37 1020.7
20260505065106 69 302 2.6 5.2 0.00 0.17 0.00 38 1020.8
20260505064806 69 306 2.6 5.2 0.00 0.17 0.00 39 1020.7
20260505064507 69 312 1.7 5.2 0.00 0.17 0.00 38 1020.8
20260505064207 69 326 1.7 6.1 0.00 0.17 0.00 38 1020.9
20260505063607 69 332 1.7 6.1 0.00 0.17 0.00 36 1021.1
20260505063007 69 339 2.6 6.1 0.00 0.18 0.00 37 1020.8
20260505062707 69 322 1.7 6.1 0.00 0.18 0.00 38 1020.8
20260505062406 69 325 3.5 6.1 0.00 0.18 0.00 35 1020.9
20260505062106 69 315 2.6 6.1 0.00 0.20 0.00 36 1020.8
20260505061507 69 318 1.7 6.1 0.00 0.21 0.00 37 1020.8
20260505061207 69 316 2.6 5.2 0.00 0.24 0.00 39 1020.8
20260505060906 70 321 1.7 5.2 0.00 0.24 0.00 37 1020.5
20260505060306 70 308 1.7 5.2 0.00 0.24 0.00 39 1020.7
20260505060006 70 315 0.9 5.2 0.00 0.24 0.00 38 1020.6
20260505055706 70 316 1.7 5.2 0.00 0.24 0.00 34 1020.6
20260505055406 70 312 1.7 5.2 0.00 0.24 0.00 37 1020.5
20260505055107 69 302 1.7 5.2 0.00 0.24 0.00 35 1020.6
20260505054807 69 299 2.6 5.2 0.00 0.24 0.00 35 1020.4
20260505054506 69 313 2.6 5.2 0.00 0.24 0.00 39 1020.6
20260505054207 69 325 1.7 7.0 0.00 0.24 0.00 37 1020.5
20260505053906 69 318 2.6 7.0 0.00 0.24 0.00 35 1020.6
20260505053606 70 321 1.7 7.0 0.00 0.24 0.00 37 1020.6
20260505053006 70 311 1.7 6.1 0.00 0.24 0.00 37 1020.7
20260505052707 70 312 3.5 6.1 0.00 0.24 0.00 38 1020.6
20260505052407 69 326 2.6 6.1 0.00 0.24 0.00 36 1020.7
20260505052107 69 337 2.6 6.1 0.00 0.24 0.00 39 1020.7
20260505051806 70 345 2.6 5.2 0.00 0.24 0.00 36 1020.7
20260505051507 70 342 1.7 5.2 0.00 0.24 0.00 38 1020.5
20260505051207 70 342 2.6 6.1 0.00 0.24 0.00 36 1020.7
20260505050906 70 321 1.7 6.1 0.00 0.24 0.00 39 1020.8
20260505050607 70 315 3.5 6.1 0.00 0.24 0.00 35 1020.6
20260505050306 69 306 1.7 5.2 0.00 0.24 0.00 40 1021.0
20260505041208 71 353 1.7 3.5 0.00 0.24 0.00 29 1021.3
20260505040307 69 301 1.7 5.2 0.00 0.24 0.00 35 1021.4
20260505040007 69 308 1.7 5.2 0.00 0.24 0.00 38 1021.3
20260505035706 69 314 2.6 3.5 0.00 0.24 0.00 36 1021.5
20260505035406 69 322 1.7 5.2 0.00 0.24 0.00 28 1021.6
20260505035107 69 322 1.7 5.2 0.00 0.24 0.00 33 1021.4
20260505034807 69 321 1.7 5.2 0.00 0.24 0.00 29 1021.6
20260505034507 69 312 0.9 3.5 0.00 0.24 0.00 31 1021.7
20260505034207 69 313 1.7 3.5 0.00 0.24 0.00 34 1021.7
20260505033906 69 313 1.7 3.5 0.00 0.24 0.00 31 1021.8
20260505033006 70 278 1.7 3.5 0.00 0.24 0.00 29 1021.8
20260505032706 69 281 1.7 3.5 0.00 0.24 0.00 42 1021.9
20260505032406 69 305 1.7 3.5 0.00 0.24 0.00 33 1021.9
20260505032106 69 309 1.7 3.5 0.00 0.24 0.00 33 1022.1
20260505031506 69 323 1.7 3.5 0.00 0.24 0.00 30 1022.1
20260505030906 69 303 1.7 3.5 0.00 0.24 0.00 30 1022.4
20260505030606 69 220 0.9 5.2 0.00 0.24 0.00 42 1022.2
20260505030306 69 204 0.9 5.2 0.00 0.24 0.00 36 1022.2
20260505030007 68 183 0.9 5.2 0.00 0.24 0.00 29 1022.4
20260505025706 69 190 3.5 5.2 0.00 0.24 0.00 36 1022.4
20260505025406 69 231 1.7 3.5 0.00 0.24 0.00 33 1022.4
20260505025106 69 236 2.6 3.5 0.00 0.24 0.00 35 1022.5
20260505024806 70 314 0.9 3.5 0.00 0.24 0.00 39 1022.3
20260505024206 68 314 1.7 3.5 0.00 0.24 0.00 43 1022.6
20260505023906 68 312 0.9 3.5 0.00 0.24 0.00 37 1022.4
20260505023606 68 305 1.7 5.2 0.00 0.24 0.00 33 1022.5
20260505023306 68 303 1.7 5.2 0.00 0.24 0.00 35 1022.7
20260505022706 69 305 3.5 5.2 0.00 0.24 0.00 35 1022.7
20260505022407 69 287 0.9 3.5 0.00 0.24 0.00 39 1022.7
20260505022106 69 174 1.7 3.5 0.00 0.24 0.00 39 1022.9
20260505021806 67 175 0.9 3.5 0.00 0.24 0.00 34 1023.0
20260505021506 67 283 1.7 3.5 0.00 0.24 0.00 31 1022.9
20260505021206 68 314 0.9 3.5 0.00 0.24 0.00 27 1023.1
20260505020606 70 311 2.6 3.5 0.00 0.24 0.00 27 1023.0
20260505020306 69 301 0.0 3.5 0.00 0.24 0.00 40 1022.9
20260505020007 69 297 0.9 3.5 0.00 0.24 0.00 40 1023.3
20260505015706 68 285 1.7 3.5 0.00 0.24 0.00 35 1023.0
20260505015406 68 262 2.6 3.5 0.00 0.24 0.00 38 1023.0
20260505014807 68 281 1.7 5.2 0.00 0.24 0.00 38 1023.1
20260505014507 68 298 1.7 5.2 0.00 0.24 0.00 40 1023.4
20260505014207 68 301 1.7 5.2 0.00 0.24 0.00 43 1023.1
20260505013906 68 319 1.7 3.5 0.00 0.24 0.00 36 1023.4
20260505013607 67 328 1.7 3.5 0.00 0.24 0.00 35 1023.1
20260505013007 67 319 0.9 3.5 0.00 0.24 0.00 28 1023.3
20260505012706 67 303 0.9 3.5 0.00 0.24 0.00 27 1023.2
20260505012406 66 303 1.7 3.5 0.00 0.24 0.00 34 1023.1
20260505012108 67 306 1.7 3.5 0.00 0.24 0.00 36 1023.1
20260505011806 67 312 0.9 3.5 0.00 0.24 0.00 37 1023.0
20260505011507 67 313 0.9 3.5 0.00 0.24 0.00 34 1023.2
20260505011206 67 312 0.0 1.7 0.00 0.24 0.00 39 1023.4
20260505010907 67 315 1.7 1.7 0.00 0.24 0.00 30 1023.4
20260505010607 67 304 1.7 3.5 0.00 0.24 0.00 32 1023.2
20260505010306 67 285 0.0 3.5 0.00 0.24 0.00 38 1023.4
20260505010007 67 243 0.9 3.5 0.00 0.24 0.00 39 1023.3
20260505005406 66 132 0.9 3.5 0.00 0.24 0.00 32 1023.3
20260505004806 65 90 1.7 3.5 0.00 0.24 0.00 38 1023.5
20260505004507 65 79 1.7 3.5 0.00 0.24 0.00 35 1023.3
20260505004207 65 81 0.0 3.5 0.00 0.24 0.00 30 1023.2
20260505003906 65 98 0.9 3.5 0.00 0.24 0.00 37 1023.4
20260505003607 65 114 0.9 3.5 0.00 0.24 0.00 43 1023.2
20260505003306 64 95 0.9 3.5 0.00 0.24 0.00 40 1023.4
20260505003007 63 88 0.9 3.5 0.00 0.24 0.00 35 1023.3
20260505002407 63 71 1.7 3.5 0.00 0.24 0.00 46 1023.3
20260505002107 62 77 1.7 5.2 0.00 0.24 0.00 44 1023.3
20260505001807 62 81 1.7 6.1 0.00 0.24 0.00 45 1023.2
20260505001507 62 82 2.6 7.0 0.00 0.24 0.00 48 1023.2
20260505001207 61 82 3.5 7.0 0.00 0.24 0.00 48 1023.1
20260505000906 60 85 2.6 7.0 0.00 0.24 0.00 51 1023.3
20260505000007 60 78 3.5 6.1 0.00 0.24 0.00 53 1023.3
20260504235706 59 83 4.3 7.8 0.00 0.24 0.00 54 1023.3
20260504235406 59 81 3.5 7.8 0.00 0.24 0.00 55 1023.3
20260504235107 58 80 3.5 7.8 0.00 0.24 0.00 58 1022.8
20260504234806 58 78 3.5 9.6 0.00 0.24 0.00 57 1023.1
20260504234506 58 85 5.2 9.6 0.00 0.24 0.00 58 1023.2
20260504234207 57 82 3.5 9.6 0.00 0.24 0.00 60 1023.2
20260504233906 57 86 5.2 9.6 0.00 0.24 0.00 61 1023.2
20260504233607 57 90 5.2 9.6 0.00 0.24 0.00 62 1023.1
20260504233306 56 90 3.5 9.6 0.00 0.24 0.00 61 1022.9
20260504233007 56 88 4.3 9.6 0.00 0.24 0.00 62 1023.0
20260504232706 56 76 3.5 7.8 0.00 0.24 0.00 63 1023.1
20260504232406 56 76 4.3 7.8 0.00 0.24 0.00 65 1023.2
20260504232106 56 77 5.2 9.6 0.00 0.24 0.00 64 1023.1
20260504231507 55 77 4.3 9.6 0.00 0.24 0.00 64 1023.2
20260504231206 54 76 4.3 9.6 0.00 0.24 0.00 65 1023.1
20260504230906 54 79 4.3 9.6 0.00 0.24 0.00 65 1023.2
20260504230606 54 76 3.5 11.3 0.00 0.24 0.00 65 1023.1
20260504230006 53 84 4.3 11.3 0.00 0.24 0.00 66 1022.8
20260504225406 53 83 5.2 11.3 0.00 0.24 0.00 68 1022.7
20260504225107 53 82 5.2 11.3 0.00 0.24 0.00 68 1022.8
20260504224806 53 82 7.0 11.3 0.00 0.24 0.00 68 1023.1
20260504224506 52 77 6.1 11.3 0.00 0.24 0.00 69 1022.7
20260504224206 52 77 6.1 11.3 0.00 0.24 0.00 69 1022.8
20260504223907 52 81 5.2 11.3 0.00 0.24 0.00 68 1022.7
20260504223606 52 81 6.1 11.3 0.00 0.24 0.00 70 1022.6
20260504223306 52 81 6.1 11.3 0.00 0.24 0.00 70 1022.8
20260504223007 51 76 5.2 11.3 0.00 0.24 0.00 71 1022.6
20260504222706 51 71 4.3 9.6 0.00 0.24 0.00 71 1022.7
20260504222406 51 66 6.1 9.6 0.00 0.24 0.00 71 1022.6
20260504222106 51 62 4.3 12.2 0.00 0.24 0.00 71 1022.6
20260504221806 51 64 6.1 12.2 0.00 0.24 0.00 71 1022.5
20260504221506 51 67 7.0 12.2 0.00 0.24 0.00 72 1022.6
20260504220907 50 72 6.1 14.8 0.00 0.24 0.00 72 1022.6
20260504220306 50 74 6.1 13.0 0.00 0.24 0.00 74 1022.5
20260504215705 50 80 7.0 13.0 0.00 0.24 0.00 73 1022.5
20260504215406 49 81 7.0 12.2 0.00 0.24 0.00 74 1022.6
20260504215106 49 78 5.2 12.2 0.00 0.24 0.00 75 1022.6
20260504214806 48 75 5.2 12.2 0.00 0.24 0.00 76 1022.3
20260504214506 48 74 4.3 12.2 0.00 0.24 0.00 78 1022.3
20260504214207 48 81 7.0 12.2 0.00 0.24 0.00 78 1022.3
20260504213606 48 84 5.2 11.3 0.00 0.24 0.00 79 1022.0
20260504213306 47 80 4.3 12.2 0.00 0.24 0.00 79 1022.4
20260504212706 47 72 5.2 12.2 0.00 0.24 0.00 79 1021.9
20260504212406 47 75 7.8 12.2 0.00 0.24 0.00 79 1022.0
20260504212106 47 80 7.0 12.2 0.00 0.24 0.00 80 1022.1
20260504211807 47 88 7.8 12.2 0.00 0.24 0.00 81 1022.0
20260504211507 47 85 7.0 12.2 0.00 0.24 0.00 80 1021.8
20260504211206 47 83 8.7 12.2 0.00 0.24 0.00 81 1021.9
20260504210906 46 80 6.1 12.2 0.00 0.24 0.00 82 1022.0
20260504210307 46 84 4.3 13.0 0.00 0.24 0.00 82 1021.8
20260504210008 46 81 7.0 13.0 0.00 0.24 0.00 83 1021.8
20260504205707 46 77 8.7 13.0 0.00 0.24 0.00 83 1021.8
20260504205106 46 69 7.0 12.2 0.00 0.24 0.00 82 1021.6
20260504204806 46 74 6.1 13.9 0.00 0.24 0.00 83 1021.6
20260504204506 46 72 7.0 13.9 0.00 0.24 0.00 83 1021.5
20260504204206 46 72 7.8 13.9 0.00 0.24 0.00 83 1021.5
20260504203906 46 73 7.8 13.9 0.00 0.24 0.00 84 1021.5
20260504203606 46 78 7.0 13.0 0.00 0.24 0.00 84 1021.2
20260504203006 46 87 7.0 13.0 0.00 0.24 0.00 84 1021.5
20260504202406 46 90 7.8 13.0 0.00 0.24 0.00 85 1021.3
20260504202106 46 85 6.1 13.0 0.00 0.24 0.00 84 1021.3
20260504201506 46 79 7.0 13.0 0.00 0.24 0.00 85 1021.3
20260504201206 46 63 6.1 13.9 0.00 0.24 0.00 85 1021.4
20260504200906 46 74 6.1 13.9 0.00 0.24 0.00 85 1021.4
20260504200606 46 80 7.0 13.9 0.00 0.24 0.00 85 1021.2
20260504200308 46 76 5.2 13.0 0.00 0.24 0.00 85 1021.2
20260504200007 46 81 5.2 13.0 0.00 0.24 0.00 86 1021.2
20260504195706 46 79 6.1 13.0 0.00 0.24 0.00 86 1021.1
20260504195406 46 82 7.0 13.0 0.00 0.24 0.00 86 1021.1
20260504194806 46 72 3.5 12.2 0.00 0.24 0.00 86 1021.0
20260504194207 46 74 5.2 12.2 0.00 0.24 0.00 87 1021.1
20260504193906 46 79 7.0 12.2 0.00 0.24 0.00 87 1021.1
20260504193606 46 86 6.1 9.6 0.00 0.24 0.00 87 1021.0
20260504193306 46 84 3.5 11.3 0.00 0.24 0.00 87 1021.1
20260504193006 46 77 5.2 11.3 0.00 0.24 0.00 87 1021.1
20260504192706 46 71 7.0 11.3 0.00 0.24 0.00 87 1021.0
20260504192406 46 65 3.5 11.3 0.00 0.24 0.00 87 1021.1
20260504192106 46 72 4.3 9.6 0.00 0.24 0.00 88 1020.8
20260504191506 46 85 5.2 9.6 0.00 0.24 0.00 87 1020.9
20260504190907 46 84 4.3 9.6 0.00 0.24 0.00 88 1020.8
20260504190606 46 75 4.3 9.6 0.00 0.24 0.00 88 1020.9
20260504190306 46 74 4.3 9.6 0.00 0.25 0.00 88 1020.8
20260504185706 46 73 4.3 12.2 0.00 0.25 0.00 89 1020.9
20260504185406 46 78 4.3 12.2 0.00 0.25 0.00 89 1020.8
20260504185106 46 78 3.5 9.6 0.00 0.25 0.00 89 1020.7
20260504184806 46 66 6.1 9.6 0.00 0.25 0.00 90 1020.6
20260504184506 46 75 4.3 9.6 0.00 0.25 0.00 90 1020.6
20260504184208 46 77 3.5 9.6 0.00 0.26 0.00 90 1020.6
20260504183905 46 83 5.2 12.2 0.00 0.26 0.00 90 1020.4
20260504183607 46 79 3.5 12.2 0.00 0.27 0.00 90 1020.6
20260504183306 46 72 3.5 12.2 0.00 0.27 0.00 90 1020.6
20260504183006 46 78 7.0 12.2 0.00 0.28 0.00 90 1020.4
20260504182406 46 89 4.3 9.6 0.00 0.30 0.00 90 1020.3
20260504182106 46 89 5.2 9.6 0.00 0.30 0.00 90 1020.4
20260504181506 46 95 6.1 9.6 0.00 0.30 0.00 91 1020.5
20260504181207 46 87 4.3 9.6 0.00 0.30 0.00 91 1020.3
20260504180906 46 82 5.2 9.6 0.00 0.30 0.00 91 1020.5
20260504180306 46 72 3.5 9.6 0.00 0.30 0.00 91 1020.4
20260504180007 46 79 6.1 9.6 0.00 0.30 0.00 91 1020.4
20260504175106 46 75 3.5 7.8 0.00 0.30 0.00 91 1020.3
20260504174806 46 79 2.6 7.8 0.00 0.30 0.00 91 1020.0
20260504174506 46 77 4.3 7.8 0.00 0.31 0.00 91 1020.3
20260504174207 46 74 5.2 7.8 0.00 0.31 0.00 91 1020.2
20260504173906 46 74 3.5 7.8 0.00 0.31 0.00 91 1020.2
20260504173606 46 78 3.5 7.8 0.00 0.32 0.00 91 1020.1
20260504173306 47 76 2.6 7.8 0.00 0.33 0.00 91 1020.1
20260504173007 47 81 3.5 7.8 0.00 0.33 0.00 91 1020.0
20260504172706 47 84 3.5 7.8 0.00 0.34 0.00 91 1019.8
20260504172407 47 90 3.5 9.6 0.00 0.35 0.00 91 1019.9
20260504171506 47 85 4.3 9.6 0.00 0.37 0.00 92 1019.7
20260504171206 47 81 5.2 9.6 0.00 0.38 0.00 92 1020.2
20260504170906 47 84 3.5 6.1 0.00 0.38 0.00 92 1020.0
20260504170606 47 82 2.6 6.1 0.00 0.38 0.00 92 1019.8
20260504160308 47 79 2.6 3.5 0.00 0.40 0.00 93 1019.7
20260504150906 49 87 0.9 1.7 0.00 0.41 0.00 95 1019.8
20260504150607 49 85 1.7 1.7 0.00 0.41 0.00 95 1020.1
20260504150307 49 87 0.9 1.7 0.00 0.43 0.00 95 1019.7
20260504140906 51 140 0.0 1.7 0.00 0.43 0.43 94 1019.4
20260504140606 51 139 0.9 1.7 0.00 0.43 0.43 93 1019.6
20260504140306 51 157 0.9 1.7 0.00 0.43 0.43 93 1019.5